Satellite: NOAA-17
Catalog number: 27453
Epoch time:      12102.71261553
Element set:    0666
Inclination:      098.3417 deg
RA of node:       133.0899 deg
Eccentricity:    0.0011559
Arg of perigee:   356.7844 deg
Mean anomaly:     003.3262 deg
Mean motion:   14.24413759 rev/day
Decay rate:       -1.2e-07 rev/day^2
Epoch rev:           50929
Checksum:              302

Satellite: NOAA-18
Catalog number: 28654
Epoch time:      12102.79434111
Element set:    0142
Inclination:      099.0407 deg
RA of node:       060.3529 deg
Eccentricity:    0.0014137
Arg of perigee:   345.1666 deg
Mean anomaly:     014.9097 deg
Mean motion:   14.11631881 rev/day
Decay rate:       4.00e-06 rev/day^2
Epoch rev:           35519
Checksum:              279

Satellite: NOAA-19
Catalog number: 33591
Epoch time:      12102.78731364
Element set:    0333
Inclination:      098.8604 deg
RA of node:       043.4154 deg
Eccentricity:    0.0013520
Arg of perigee:   206.1366 deg
Mean anomaly:     153.9120 deg
Mean motion:   14.11319003 rev/day
Decay rate:        5.4e-07 rev/day^2
Epoch rev:           16364
Checksum:              260

/EX
SB KEPS @ AMSAT  $ORB12103.M
Orbital Elements  12103.MISC

HR AMSAT ORBITAL ELEMENTS FOR MANNED AND MISCELLANEOUS SATELLITES
FROM WA5QGD FORT WORTH,TX April 12, 2012
Send SUBSCRIBE KEPS/UNSUBSCRIBE KEPS to majordomo@amsat.org only
BID: ORB12103.M
TO ALL RADIO AMATEURS BT

Satellite: HUBBLE
Catalog number: 20580
Epoch time:      12101.50189587
Element set:     979
Inclination:      028.4695 deg
RA of node:       226.4333 deg
Eccentricity:    0.0003291
Arg of perigee:   062.4900 deg
Mean anomaly:     297.5817 deg
Mean motion:   15.02358714 rev/day
Decay rate:      1.554e-05 rev/day^2
Epoch rev:             454
Checksum:              292

Satellite: ISS
Catalog number: 25544
Epoch time:      12103.85539831
Element set:     363
Inclination:      051.6428 deg
RA of node:       089.3775 deg
Eccentricity:    0.0007675
Arg of perigee:   268.0021 deg
Mean anomaly:     165.7065 deg
Mean motion:   15.58228172 rev/day
Decay rate:     1.1250e-04 rev/day^2
Epoch rev:           76783
Checksum:              308

Satellite: CO-58
Catalog number: 28895
Epoch time:      12103.59143758
Element set:     147
Inclination:      097.9221 deg
RA of node:       332.7172 deg
Eccentricity:    0.0017594
Arg of perigee:   002.2090 deg
Mean anomaly:     357.9209 deg
Mean motion:   14.60557042 rev/day
Decay rate:       5.96e-06 rev/day^2
Epoch rev:           34408
Checksum:              318

Satellite: FALCON
Catalog number: 30776
Epoch time:      12103.88016056
Element set:     322
Inclination:      035.4339 deg
RA of node:       315.5930 deg
Eccentricity:    0.0001008
Arg of perigee:   207.8364 deg
Mean anomaly:     152.2291 deg
Mean motion:   15.07059744 rev/day
Decay rate:      3.413e-05 rev/day^2
Epoch rev:           28039
Checksum:              268

Satellite: MAST
Catalog number: 31126
Epoch time:      12103.57748710
Element set:     431
Inclination:      097.8758 deg
RA of node:       118.5128 deg
Eccentricity:    0.0093526
Arg of perigee:   315.9298 deg
Mean anomaly:     043.4465 deg
Mean motion:   14.54099467 rev/day
Decay rate:       3.93e-06 rev/day^2
Epoch rev:           26473
Checksum:              320

Satellite: CAPE1
Catalog number: 31130
Epoch time:      12103.69577526
Element set:     442
Inclination:      097.8861 deg
RA of node:       115.0482 deg
Eccentricity:    0.0100857
Arg of perigee:   328.3373 deg
Mean anomaly:     031.1766 deg
Mean motion:   14.52858175 rev/day
Decay rate:       4.91e-06 rev/day^2
Epoch rev:           26426
Checksum:              296

Satellite: COMPASS
Catalog number: 32787
Epoch time:      12103.59243903
Element set:     274
Inclination:      097.8050 deg
RA of node:       166.3714 deg
Eccentricity:    0.0014194
Arg of perigee:   276.7848 deg
Mean anomaly:     083.1753 deg
Mean motion:   14.83728677 rev/day
Decay rate:      1.092e-05 rev/day^2
Epoch rev:           21408
Checksum:              315

Satellite: AAUSAT2
Catalog number: 32788
Epoch time:      12102.63189380
Element set:    0265
Inclination:      097.8054 deg
RA of node:       165.7774 deg
Eccentricity:    0.0013523
Arg of perigee:   279.5836 deg
Mean anomaly:     080.3795 deg
Mean motion:   14.84027489 rev/day
Decay rate:      1.432e-05 rev/day^2
Epoch rev:           21396
Checksum:              329

Satellite: DO-64
Catalog number: 32789
Epoch time:      12102.74213176
Element set:    0282
Inclination:      097.8183 deg
RA of node:       167.6661 deg
Eccentricity:    0.0013504
Arg of perigee:   275.0168 deg
Mean anomaly:     084.9500 deg
Mean motion:   14.85324815 rev/day
Decay rate:      2.632e-05 rev/day^2
Epoch rev:           21401
Checksum:              296

Satellite: CO-66
Catalog number: 32791
Epoch time:      12102.61275961
Element set:    0268
Inclination:      097.8053 deg
RA of node:       165.2045 deg
Eccentricity:    0.0014597
Arg of perigee:   278.9988 deg
Mean anomaly:     080.9600 deg
Mean motion:   14.83196120 rev/day
Decay rate:      1.548e-05 rev/day^2
Epoch rev:           21387
Checksum:              331

